| time (UTC) | temp C | wind direction | speed KPH | gust KPH | rain 1hr cm | rain 24hr cm | rain mn cm | humidity % | barometer mb |
| 20260504014810 | 12 | 52 | 1.6 | 3.2 | 0.00 | 0.00 | 0.00 | 61 | 1015.4 |
| 20260504014311 | 12 | 66 | 1.6 | 3.2 | 0.00 | 0.00 | 0.00 | 62 | 1015.4 |
| 20260504013809 | 12 | 68 | 1.6 | 3.2 | 0.00 | 0.00 | 0.00 | 63 | 1015.4 |
| 20260504013310 | 12 | 63 | 1.6 | 3.2 | 0.00 | 0.00 | 0.00 | 62 | 1015.4 |
| 20260504012809 | 12 | 42 | 1.6 | 3.2 | 0.00 | 0.00 | 0.00 | 62 | 1015.1 |
| 20260504011810 | 13 | 75 | 1.6 | 3.2 | 0.00 | 0.00 | 0.00 | 59 | 1014.8 |
| 20260504011310 | 13 | 62 | 1.6 | 3.2 | 0.00 | 0.00 | 0.00 | 59 | 1014.9 |
| 20260504010809 | 13 | 40 | 1.6 | 1.6 | 0.00 | 0.00 | 0.00 | 58 | 1014.9 |
| 20260504010309 | 13 | 62 | 1.6 | 3.2 | 0.00 | 0.00 | 0.00 | 60 | 1015.0 |
| 20260504005310 | 13 | 26 | 1.6 | 3.2 | 0.00 | 0.00 | 0.00 | 59 | 1014.9 |
| 20260504004810 | 13 | 17 | 1.6 | 3.2 | 0.00 | 0.00 | 0.00 | 58 | 1014.9 |
| 20260504004309 | 13 | 12 | 1.6 | 1.6 | 0.00 | 0.00 | 0.00 | 59 | 1014.8 |
| 20260504003810 | 14 | 14 | 1.6 | 3.2 | 0.00 | 0.00 | 0.00 | 59 | 1014.8 |
| 20260504003310 | 14 | 21 | 1.6 | 3.2 | 0.00 | 0.00 | 0.00 | 57 | 1014.8 |
| 20260504002810 | 14 | 31 | 1.6 | 3.2 | 0.00 | 0.00 | 0.00 | 58 | 1014.7 |
| 20260504002310 | 14 | 36 | 1.6 | 3.2 | 0.00 | 0.00 | 0.00 | 60 | 1014.8 |
| 20260504001810 | 15 | 20 | 1.6 | 1.6 | 0.00 | 0.00 | 0.00 | 58 | 1014.8 |
| 20260504001309 | 15 | 1 | 1.6 | 3.2 | 0.00 | 0.00 | 0.00 | 58 | 1014.8 |
| 20260504000811 | 15 | 29 | 1.6 | 3.2 | 0.00 | 0.00 | 0.00 | 54 | 1014.7 |
| 20260504000309 | 15 | 86 | 1.6 | 3.2 | 0.00 | 0.00 | 0.00 | 54 | 1014.7 |
| 20260503235809 | 15 | 16 | 1.6 | 3.2 | 0.00 | 0.00 | 0.00 | 58 | 1014.8 |
| 20260503235309 | 16 | 34 | 1.6 | 3.2 | 0.00 | 0.00 | 0.00 | 52 | 1014.9 |
| 20260503234809 | 16 | 16 | 1.6 | 3.2 | 0.00 | 0.00 | 0.00 | 53 | 1014.8 |
| 20260503234309 | 16 | 82 | 1.6 | 3.2 | 0.00 | 0.00 | 0.00 | 49 | 1014.9 |
| 20260503233809 | 16 | 61 | 1.6 | 3.2 | 0.00 | 0.00 | 0.00 | 52 | 1014.9 |
| 20260503233309 | 16 | 356 | 0.0 | 3.2 | 0.00 | 0.00 | 0.00 | 48 | 1014.9 |
| 20260503232809 | 16 | 73 | 1.6 | 4.8 | 0.00 | 0.00 | 0.00 | 49 | 1014.9 |
| 20260503231809 | 16 | 72 | 1.6 | 3.2 | 0.00 | 0.00 | 0.00 | 45 | 1015.2 |
| 20260503230810 | 17 | 15 | 3.2 | 4.8 | 0.00 | 0.00 | 0.00 | 45 | 1015.4 |
| 20260503230309 | 17 | 21 | 1.6 | 3.2 | 0.00 | 0.00 | 0.00 | 44 | 1015.5 |
| 20260503225809 | 17 | 25 | 1.6 | 4.8 | 0.00 | 0.00 | 0.00 | 44 | 1015.5 |
| 20260503225309 | 17 | 67 | 3.2 | 8.0 | 0.00 | 0.00 | 0.00 | 42 | 1015.6 |
| 20260503224809 | 17 | 45 | 1.6 | 8.0 | 0.00 | 0.00 | 0.00 | 43 | 1015.8 |
| 20260503223809 | 17 | 45 | 3.2 | 8.0 | 0.00 | 0.00 | 0.00 | 41 | 1015.9 |
| 20260503223309 | 17 | 348 | 1.6 | 9.7 | 0.00 | 0.00 | 0.00 | 41 | 1015.8 |
| 20260503222809 | 17 | 0 | 3.2 | 4.8 | 0.00 | 0.00 | 0.00 | 42 | 1015.8 |
| 20260503222309 | 17 | 28 | 1.6 | 8.0 | 0.00 | 0.00 | 0.00 | 44 | 1015.8 |
| 20260503221809 | 17 | 345 | 1.6 | 8.0 | 0.00 | 0.00 | 0.00 | 43 | 1015.7 |
| 20260503221309 | 17 | 299 | 3.2 | 8.0 | 0.00 | 0.00 | 0.00 | 41 | 1016.0 |
| 20260503220809 | 17 | 32 | 4.8 | 4.8 | 0.00 | 0.00 | 0.00 | 40 | 1016.2 |
| 20260503220310 | 17 | 27 | 3.2 | 4.8 | 0.00 | 0.00 | 0.00 | 40 | 1016.3 |
| 20260503215309 | 17 | 81 | 6.4 | 12.9 | 0.00 | 0.00 | 0.00 | 39 | 1016.4 |
| 20260503214809 | 17 | 75 | 3.2 | 8.0 | 0.00 | 0.00 | 0.00 | 40 | 1016.6 |
| 20260503214311 | 17 | 4 | 3.2 | 11.3 | 0.00 | 0.00 | 0.00 | 40 | 1016.7 |
| 20260503213809 | 17 | 100 | 3.2 | 4.8 | 0.00 | 0.00 | 0.00 | 40 | 1016.7 |
| 20260503213309 | 17 | 275 | 3.2 | 4.8 | 0.00 | 0.00 | 0.00 | 42 | 1016.7 |
| 20260503212809 | 17 | 94 | 3.2 | 9.7 | 0.00 | 0.00 | 0.00 | 40 | 1016.7 |
| 20260503212309 | 17 | 330 | 3.2 | 4.8 | 0.00 | 0.00 | 0.00 | 38 | 1016.4 |
| 20260503211809 | 17 | 6 | 1.6 | 4.8 | 0.00 | 0.00 | 0.00 | 40 | 1016.3 |
| 20260503211309 | 17 | 116 | 1.6 | 8.0 | 0.00 | 0.00 | 0.00 | 40 | 1016.5 |
| 20260503210809 | 17 | 160 | 1.6 | 4.8 | 0.00 | 0.00 | 0.00 | 39 | 1016.9 |
| 20260503210309 | 17 | 64 | 1.6 | 8.0 | 0.00 | 0.00 | 0.00 | 39 | 1017.0 |
| 20260503205809 | 17 | 56 | 3.2 | 8.0 | 0.00 | 0.00 | 0.00 | 38 | 1017.0 |
| 20260503205309 | 17 | 69 | 1.6 | 8.0 | 0.00 | 0.00 | 0.00 | 36 | 1016.9 |
| 20260503204809 | 17 | 326 | 3.2 | 8.0 | 0.00 | 0.00 | 0.00 | 37 | 1017.0 |
| 20260503204309 | 17 | 61 | 4.8 | 12.9 | 0.00 | 0.00 | 0.00 | 38 | 1017.0 |
| 20260503203809 | 17 | 2 | 3.2 | 9.7 | 0.00 | 0.00 | 0.00 | 37 | 1017.0 |
| 20260503203309 | 17 | 111 | 3.2 | 12.9 | 0.00 | 0.00 | 0.00 | 38 | 1017.2 |
| 20260503202809 | 17 | 312 | 1.6 | 4.8 | 0.00 | 0.00 | 0.00 | 37 | 1017.2 |
| 20260503202309 | 17 | 54 | 1.6 | 4.8 | 0.00 | 0.00 | 0.00 | 37 | 1017.2 |
| 20260503201809 | 17 | 29 | 3.2 | 9.7 | 0.00 | 0.00 | 0.00 | 39 | 1017.4 |
| 20260503201309 | 17 | 17 | 3.2 | 11.3 | 0.00 | 0.00 | 0.00 | 37 | 1017.5 |
| 20260503200810 | 17 | 59 | 3.2 | 11.3 | 0.00 | 0.00 | 0.00 | 37 | 1017.7 |
| 20260503195809 | 17 | 98 | 3.2 | 9.7 | 0.00 | 0.00 | 0.00 | 37 | 1018.0 |
| 20260503195309 | 17 | 104 | 4.8 | 14.5 | 0.00 | 0.00 | 0.00 | 36 | 1018.1 |
| 20260503194809 | 17 | 141 | 3.2 | 4.8 | 0.00 | 0.00 | 0.00 | 37 | 1018.2 |
| 20260503194309 | 17 | 197 | 3.2 | 14.5 | 0.00 | 0.00 | 0.00 | 36 | 1018.3 |
| 20260503193809 | 17 | 117 | 4.8 | 8.0 | 0.00 | 0.00 | 0.00 | 38 | 1018.4 |
| 20260503193309 | 17 | 332 | 4.8 | 11.3 | 0.00 | 0.00 | 0.00 | 36 | 1018.5 |
| 20260503191809 | 17 | 121 | 3.2 | 8.0 | 0.00 | 0.00 | 0.00 | 36 | 1018.7 |
| 20260503191309 | 17 | 229 | 1.6 | 9.7 | 0.00 | 0.00 | 0.00 | 36 | 1018.8 |
| 20260503190809 | 17 | 136 | 4.8 | 9.7 | 0.00 | 0.00 | 0.00 | 35 | 1018.7 |
| 20260503190309 | 17 | 196 | 3.2 | 11.3 | 0.00 | 0.00 | 0.00 | 37 | 1018.9 |
| 20260503185810 | 17 | 18 | 4.8 | 9.7 | 0.00 | 0.00 | 0.00 | 37 | 1019.4 |
| 20260503185309 | 17 | 273 | 1.6 | 4.8 | 0.00 | 0.00 | 0.00 | 35 | 1019.6 |
| 20260503184809 | 17 | 188 | 1.6 | 9.7 | 0.00 | 0.00 | 0.00 | 34 | 1019.7 |
| 20260503184309 | 17 | 64 | 1.6 | 11.3 | 0.00 | 0.00 | 0.00 | 34 | 1019.8 |
| 20260503183809 | 17 | 59 | 3.2 | 11.3 | 0.00 | 0.00 | 0.00 | 34 | 1019.9 |
| 20260503183309 | 17 | 144 | 1.6 | 4.8 | 0.00 | 0.00 | 0.00 | 35 | 1019.9 |
| 20260503182809 | 17 | 175 | 1.6 | 8.0 | 0.00 | 0.00 | 0.00 | 35 | 1020.0 |
| 20260503181309 | 17 | 81 | 3.2 | 8.0 | 0.00 | 0.00 | 0.00 | 38 | 1020.1 |
| 20260503180809 | 17 | 93 | 4.8 | 9.7 | 0.00 | 0.00 | 0.00 | 34 | 1020.1 |
| 20260503180309 | 17 | 167 | 4.8 | 11.3 | 0.00 | 0.00 | 0.00 | 35 | 1020.2 |
| 20260503175809 | 18 | 60 | 4.8 | 9.7 | 0.00 | 0.00 | 0.00 | 34 | 1020.3 |
| 20260503175309 | 17 | 123 | 3.2 | 8.0 | 0.00 | 0.00 | 0.00 | 37 | 1020.3 |
| 20260503174809 | 17 | 97 | 3.2 | 8.0 | 0.00 | 0.00 | 0.00 | 34 | 1020.3 |
| 20260503174310 | 17 | 101 | 3.2 | 4.8 | 0.00 | 0.00 | 0.00 | 36 | 1020.5 |
| 20260503173809 | 17 | 52 | 3.2 | 4.8 | 0.00 | 0.00 | 0.00 | 35 | 1020.7 |
| 20260503173309 | 17 | 147 | 3.2 | 4.8 | 0.00 | 0.00 | 0.00 | 35 | 1020.9 |
| 20260503172809 | 17 | 278 | 1.6 | 4.8 | 0.00 | 0.00 | 0.00 | 36 | 1020.9 |
| 20260503172309 | 16 | 301 | 4.8 | 8.0 | 0.00 | 0.00 | 0.00 | 37 | 1020.9 |
| 20260503171809 | 16 | 34 | 3.2 | 9.7 | 0.00 | 0.00 | 0.00 | 40 | 1021.1 |
| 20260503171309 | 17 | 132 | 4.8 | 12.9 | 0.00 | 0.00 | 0.00 | 36 | 1021.1 |
| 20260503170809 | 16 | 134 | 1.6 | 4.8 | 0.00 | 0.00 | 0.00 | 37 | 1021.1 |
| 20260503170309 | 16 | 121 | 6.4 | 11.3 | 0.00 | 0.00 | 0.00 | 35 | 1021.1 |
| 20260503150809 | 14 | 121 | 1.6 | 8.0 | 0.00 | 0.00 | 0.00 | 40 | 1022.9 |
| 20260503150309 | 13 | 81 | 3.2 | 4.8 | 0.00 | 0.00 | 0.00 | 42 | 1023.0 |
| 20260503140309 | 10 | 340 | 1.6 | 3.2 | 0.00 | 0.00 | 0.00 | 60 | 1022.5 |
| 20260503131309 | 8 | 136 | 1.6 | 3.2 | 0.00 | 0.00 | 0.00 | 66 | 1022.4 |
| 20260503110809 | 2 | 98 | 1.6 | 3.2 | 0.00 | 0.00 | 0.00 | 93 | 1020.8 |
| 20260503110309 | 2 | 115 | 1.6 | 3.2 | 0.00 | 0.00 | 0.00 | 92 | 1020.7 |
| 20260503090308 | 3 | 56 | 1.6 | 3.2 | 0.00 | 0.00 | 0.00 | 88 | 1020.5 |
| 20260503081309 | 3 | 44 | 1.6 | 3.2 | 0.00 | 0.00 | 0.00 | 91 | 1020.4 |
| 20260503080808 | 3 | 28 | 1.6 | 1.6 | 0.00 | 0.00 | 0.00 | 90 | 1020.3 |
| 20260503072808 | 3 | 61 | 3.2 | 3.2 | 0.00 | 0.00 | 0.00 | 89 | 1020.0 |
| 20260503072308 | 3 | 52 | 1.6 | 3.2 | 0.00 | 0.00 | 0.00 | 89 | 1020.0 |
| 20260503071808 | 3 | 75 | 1.6 | 3.2 | 0.00 | 0.00 | 0.00 | 89 | 1019.9 |
| 20260503070808 | 3 | 92 | 1.6 | 3.2 | 0.00 | 0.00 | 0.00 | 89 | 1020.0 |
| 20260503060309 | 5 | 69 | 1.6 | 3.2 | 0.00 | 0.00 | 0.00 | 85 | 1020.2 |
| 20260503053809 | 5 | 97 | 1.6 | 3.2 | 0.00 | 0.00 | 0.00 | 84 | 1020.2 |
| 20260503053309 | 5 | 187 | 1.6 | 3.2 | 0.00 | 0.00 | 0.00 | 82 | 1020.1 |
| 20260503052809 | 5 | 33 | 1.6 | 3.2 | 0.00 | 0.00 | 0.00 | 82 | 1020.2 |
| 20260503051309 | 5 | 79 | 1.6 | 3.2 | 0.00 | 0.00 | 0.00 | 84 | 1020.2 |
| 20260503050809 | 5 | 53 | 1.6 | 3.2 | 0.00 | 0.00 | 0.00 | 85 | 1020.2 |
| 20260503050309 | 6 | 48 | 1.6 | 1.6 | 0.00 | 0.00 | 0.00 | 85 | 1020.3 |
| 20260503045809 | 6 | 44 | 1.6 | 3.2 | 0.00 | 0.00 | 0.00 | 84 | 1020.2 |
| 20260503044809 | 6 | 59 | 1.6 | 3.2 | 0.00 | 0.00 | 0.00 | 83 | 1020.2 |
| 20260503044310 | 6 | 63 | 1.6 | 1.6 | 0.00 | 0.00 | 0.00 | 83 | 1020.2 |
| 20260503043809 | 6 | 85 | 1.6 | 1.6 | 0.00 | 0.00 | 0.00 | 83 | 1020.1 |
| 20260503043309 | 6 | 140 | 1.6 | 1.6 | 0.00 | 0.00 | 0.00 | 82 | 1020.1 |
| 20260503042809 | 6 | 48 | 1.6 | 1.6 | 0.00 | 0.00 | 0.00 | 82 | 1020.1 |
| 20260503042309 | 6 | 67 | 1.6 | 1.6 | 0.00 | 0.00 | 0.00 | 82 | 1020.1 |
| 20260503041310 | 7 | 65 | 1.6 | 3.2 | 0.00 | 0.00 | 0.00 | 81 | 1020.1 |
| 20260503040841 | 7 | 56 | 1.6 | 3.2 | 0.00 | 0.00 | 0.00 | 81 | 1020.1 |
| 20260503040309 | 7 | 0 | 1.6 | 3.2 | 0.00 | 0.00 | 0.00 | 80 | 1020.1 |
| 20260503035309 | 7 | 62 | 1.6 | 1.6 | 0.00 | 0.00 | 0.00 | 83 | 1020.1 |
| 20260503034309 | 7 | 59 | 1.6 | 1.6 | 0.00 | 0.00 | 0.00 | 82 | 1020.0 |
| 20260503033810 | 7 | 344 | 1.6 | 3.2 | 0.00 | 0.00 | 0.00 | 76 | 1020.0 |
| 20260503032810 | 7 | 11 | 1.6 | 3.2 | 0.00 | 0.00 | 0.00 | 78 | 1020.0 |
| 20260503032310 | 7 | 67 | 1.6 | 3.2 | 0.00 | 0.00 | 0.00 | 81 | 1020.0 |
| 20260503031810 | 7 | 85 | 1.6 | 1.6 | 0.00 | 0.00 | 0.00 | 82 | 1020.0 |
| 20260503031310 | 7 | 20 | 1.6 | 1.6 | 0.00 | 0.00 | 0.00 | 84 | 1019.9 |
| 20260503030811 | 7 | 151 | 1.6 | 1.6 | 0.00 | 0.00 | 0.00 | 86 | 1019.9 |
| 20260503030310 | 7 | 145 | 1.6 | 1.6 | 0.00 | 0.00 | 0.00 | 87 | 1019.8 |
| 20260503025810 | 7 | 29 | 1.6 | 3.2 | 0.00 | 0.00 | 0.00 | 86 | 1019.8 |
| 20260503023809 | 7 | 33 | 1.6 | 1.6 | 0.00 | 0.00 | 0.00 | 86 | 1019.6 |
| 20260503022809 | 7 | 102 | 1.6 | 1.6 | 0.00 | 0.00 | 0.00 | 84 | 1019.5 |
| 20260503022309 | 7 | 40 | 1.6 | 3.2 | 0.00 | 0.00 | 0.00 | 83 | 1019.4 |
| 20260503021809 | 7 | 33 | 1.6 | 3.2 | 0.00 | 0.00 | 0.00 | 82 | 1019.2 |
| 20260503021309 | 7 | 86 | 1.6 | 1.6 | 0.00 | 0.00 | 0.00 | 82 | 1019.1 |
| 20260503020809 | 7 | 67 | 1.6 | 3.2 | 0.00 | 0.00 | 0.00 | 81 | 1019.1 |
| 20260503020311 | 7 | 65 | 1.6 | 1.6 | 0.00 | 0.00 | 0.00 | 80 | 1019.1 |
| 20260503015809 | 7 | 87 | 0.0 | 3.2 | 0.00 | 0.00 | 0.00 | 80 | 1019.1 |
| 20260503015309 | 7 | 65 | 1.6 | 1.6 | 0.00 | 0.00 | 0.00 | 80 | 1019.0 |